This is the latest recevied weather packets stored in our database for station/object G4MDP-13. If no packets are shown the sender has not sent any weather packets the latest 10 day(s).
| Time | Temp. | Humidity | Pressure | Rain* | Wind** | Luminosity | Snow |
|---|---|---|---|---|---|---|---|
| 1777545960 | 18.89° C | 33% | 1015.3 hPa | 0 mm | - | - | - |
| 1777545065 | 18.33° C | 33% | 1015.4 hPa | 0 mm | - | - | - |
| 1777545061 | 18.33° C | 33% | 1015.4 hPa | 0 mm | - | - | - |
| 1777544220 | 18.89° C | 33% | 1015.5 hPa | 0 mm | - | - | - |
| 1777544161 | 18.33° C | 33% | 1015.5 hPa | 0 mm | - | - | - |
| 1777544160 | 18.33° C | 33% | 1015.5 hPa | 0 mm | - | - | - |
| 1777543264 | 18.33° C | 35% | 1015.4 hPa | 0 mm | - | - | - |
| 1777543261 | 18.33° C | 35% | 1015.4 hPa | 0 mm | - | - | - |
| 1777542420 | 18.33° C | 35% | 1015.3 hPa | 0 mm | - | - | - |
| 1777542361 | 18.33° C | 35% | 1015.5 hPa | 0 mm | - | - | - |
| 1777542360 | 18.33° C | 35% | 1015.5 hPa | 0 mm | - | - | - |
| 1777541466 | 17.78° C | 35% | 1015.6 hPa | 0 mm | - | - | - |
| 1777541461 | 17.78° C | 35% | 1015.6 hPa | 0 mm | - | - | - |
| 1777540621 | 17.78° C | 35% | 1015.6 hPa | 0 mm | - | - | - |
| 1777540561 | 17.78° C | 35% | 1015.6 hPa | 0 mm | - | - | - |
| 1777540561 | 17.78° C | 35% | 1015.6 hPa | 0 mm | - | - | - |
| 1777539664 | 17.22° C | 35% | 1015.3 hPa | 0 mm | - | - | - |
| 1777539661 | 17.22° C | 35% | 1015.3 hPa | 0 mm | - | - | - |
| 1777538820 | 17.22° C | 35% | 1015.7 hPa | 0 mm | - | - | - |
| 1777538761 | 17.22° C | 36% | 1015.6 hPa | 0 mm | - | - | - |
| 1777538761 | 17.22° C | 36% | 1015.6 hPa | 0 mm | - | - | - |
| 1777537861 | 16.11° C | 37% | 1015.5 hPa | 0 mm | - | - | - |
| 1777537020 | 16.11° C | 38% | 1015.4 hPa | 0 mm | - | - | - |
| 1777536961 | 15.56° C | 39% | 1015.4 hPa | 0 mm | - | - | - |
| 1777536961 | 15.56° C | 39% | 1015.4 hPa | 0 mm | - | - | - |
* Rain latest hour (hover to see other rain measurements)
** Current wind speed in m/s (hover to see current wind gust speed)